Погода в Думае

Индонезия     1°40′15″N   101°26′38″E
темп.,
°C
ветер,
м/с
пор.,
м/с
влажн.,
%
обл.,
%
осадки,
мм/ч
давл.,
гПа
погр.,
м
25 мая, ср
ср2501:00+24ююв119550 1.1 101014
04:00+23ю1197100 0.5 100919
07:00+24зюз1196100 2.3 101153
10:00+30зсз126794 0.1 1012672
13:00+29ссз1282100 3.9 1010408
16:00+23с2599100 3.2 1009244
19:00+23сз2796100 3.2 1011290
22:00+23с2899100 3.0 1013374
26 мая, чт
чт2601:00+22ссз2895100 5.3 1011233
04:00+22ююз1195100 0.1 100927
07:00+22ююв119892 0.1 101169
10:00+26з128096 0.0 1011377
13:00+29зсз1366100 0.0 1009772
16:00+29с127169 0.0 1007481
19:00+25с129055 0.0 100842
22:00+24ссз129071 0.0 101050
27 мая, пт
пт2701:00+24з12937 0.0 100961
04:00+23з139675 0.0 100871
07:00+24з139286 0.1 1009121
10:00+31сз2363100 0.0 10101164
13:00+33ссз335154 0.1 10071799
16:00+31ссз346290 0.2 1006894
19:00+26ссз2687100 0.2 1007168
22:00+24сз1396100 1.4 101063
28 мая, сб
сб2801:00+24сз2694100 2.4 1009128
04:00+24зсз1294100 0.0 100855
07:00+24з1394100 0.0 1010106
10:00+30з236299 0.0 1010904
13:00+32з2550100 0.0 10071804
16:00+30сз1369100 0.0 1006206
19:00+26ссв118893 0.1 100819
22:00+25ссв0090100 0.0 101014
29 мая, вс
вс2901:00+24з119488 0.0 100930
04:00+23зюз2791100 0.0 1008205
07:00+23зюз1488100 0.0 1010149
10:00+30зсз236394 0.0 1010900
13:00+33сз244997 0.0 10071818
16:00+30ссз35638 0.3 1006697
19:00+26ссз138583 0.3 100869
22:00+26зсз248096 0.0 1010107